Location: Melbourne
(37.8666°S, 145.1333°E)
Time: 09:31:53
(UTC+11:00)

Hubble Space Telescope - Visible Passes

Search period start: 01 February 2015 00:00
Search period end: 11 February 2015 00:00
Orbit: 544 x 548 km, 28.5° (Epoch: 31 January)

Date Brightness Start Highest point End Pass type
(mag) Time Alt. Az. Time Alt. Az. Time Alt. Az.
02 Feb 3.1 05:47:10 10° N 05:48:44 12° NNE 05:50:22 10° NE visible
03 Feb 3.0 05:38:22 10° NNW 05:40:36 14° NNE 05:42:54 10° NE visible
04 Feb 2.8 05:30:26 12° NNW 05:32:28 16° NNE 05:35:10 10° NE visible
05 Feb 2.6 05:22:50 15° NNW 05:24:21 18° N 05:27:18 10° NE visible
06 Feb 2.4 05:15:14 19° NNW 05:16:13 20° N 05:19:21 10° NE visible
07 Feb 2.3 05:07:40 21° N 05:08:06 21° N 05:11:20 10° NE visible
08 Feb 2.3 05:00:07 22° N 05:00:07 22° N 05:03:16 10° NE visible
09 Feb 2.4 04:52:40 21° NNE 04:52:40 21° NNE 04:55:08 10° NE visible
10 Feb 2.7 04:45:16 18° NNE 04:45:16 18° NNE 04:46:58 10° NE visible
